[[{"header":{"parameterUnit":"m.s-1","parameterCategory":1,"la1":30.2991,"la2":30.254,"lo1":-89.0895,"lo2":-89.0444,"dy":0.0017,"dx":0.0017,"nx":28,"ny":28,"refTime":"2025-07-05T09:00:00:Z","depth":0,"parameterNumber":2,"parameterNumberName":"U-component_of_WINDS"},"data":[0,0,0,0,0,0,0,0,0,0,0,0,0,0,0,0,0,0,0,0,0,0,0,0,0,0,0,0,0,0,0,0,0,0,0,0,0,0,0,0,0,0,0,0,0,0,0,0,0,0,0,0,0,0,0,0,0,0,0.3249,0.3249,0,0.3212,0.3211,0.3211,0.3205,0.3205,0.3206,0.3206,0.3167,0.3166,0.3165,0,0,0,0,0,0,0,0,0,0,0,0,0,0.3315,0.3314,0.3249,0.3249,0.3248,0.3212,0.3211,0.3211,0.3205,0.3205,0.3206,0.3206,0.3168,0.3166,0.3165,0,0,0,0,0,0,0,0,0,0,0,0,0,0.3283,0.3314,0.3249,0.3241,0.324,0.3212,0.3211,0.3211,0.3205,0.3205,0.3206,0.3206,0.3168,0.3166,0.3165,0.3143,0,0,0.3158,0.3158,0,0,0,0,0,0,0,0,0.3285,0.3281,0.3242,0.3241,0.324,0.3214,0.3221,0.3188,0.3205,0.3218,0.3206,0.3206,0.3182,0.3179,0.3171,0.3141,0.3139,0.3158,0.3157,0.3156,0.3156,0,0,0,0,0,0,0,0.3287,0.3282,0.3234,0.3242,0.324,0.3239,0.3235,0.3214,0.3198,0.3217,0.3216,0.3212,0.3182,0.3173,0.317,0.3139,0.3158,0.3157,0.3155,0.3155,0.3089,0.3089,0,0,0,0,0,0,0.3291,0.3284,0.3236,0.3233,0.3264,0.3237,0.3233,0.3222,0.3198,0.3195,0.3212,0.3212,0.3176,0.3173,0.3169,0.3142,0.3156,0.3154,0.3153,0.309,0.3089,0.3089,0,0,0,0,0,0,0.3292,0.3287,0.3237,0.3259,0.3252,0.3236,0.3223,0.3221,0.3212,0.3194,0.3191,0.3206,0.3177,0.3172,0.3149,0.3141,0.3153,0.3152,0.3091,0.309,0.3089,0.3088,0,0,0,0,0,0,0.3294,0.3287,0.3278,0.3258,0.3251,0.3218,0.3222,0.3219,0.3208,0.3208,0.3188,0.3185,0.3177,0.3152,0.3147,0.3138,0.315,0.3091,0.309,0.3089,0.3089,0.3087,0.3086,0,0,0,0,0,0.3297,0.3279,0.3278,0.3272,0.324,0.3217,0.3213,0.3204,0.3208,0.3199,0.3188,0.3186,0.3143,0.315,0.3145,0.3134,0.3092,0.3091,0.3089,0.3089,0.3088,0.3086,0,0,0,0,0,0,0.3298,0.3276,0.3275,0.325,0.3236,0.3216,0.3205,0.3202,0.3186,0.3187,0.3176,0.3171,0.315,0.314,0.3149,0.3113,0.3118,0.3115,0.312,0.3118,0.3116,0.3119,0.3148,0,0,0,0,0,0.3296,0.3279,0.3261,0.3242,0.3235,0.3221,0.3211,0.3205,0.319,0.3183,0.3171,0.3156,0.3139,0.3128,0.3111,0.3088,0.3083,0.3078,0.3077,0.3076,0.3074,0.3061,0.3059,0.3085,0.3085,0.3085,0,0,0.329,0.3277,0.3267,0.3242,0.323,0.3213,0.3216,0.3198,0.3186,0.3181,0.3159,0.3149,0.3132,0.3109,0.3098,0.31,0.3066,0.3074,0.3074,0.3072,0.306,0.3057,0.3055,0.3084,0.3084,0.3084,0,0,0.3272,0.326,0.3242,0.3231,0.3213,0.3204,0.32,0.3181,0.3175,0.3153,0.3149,0.3135,0.3106,0.3094,0.3084,0.3063,0.306,0.3058,0.305,0.3038,0.3036,0.3035,0.3027,0.3025,0.3056,0.3056,0.3056,0,0.3267,0.3242,0.3234,0.3216,0.3206,0.3201,0.3183,0.3173,0.315,0.3143,0.3146,0.311,0.3098,0.3073,0.3068,0.306,0.3055,0.306,0.3037,0.3035,0.3034,0.3026,0.3024,0.3056,0.3056,0.3056,0.3056,0,0.3238,0.3221,0.3209,0.3188,0.3176,0.3158,0.3147,0.3136,0.3132,0.3124,0.3102,0.3088,0.3069,0.3063,0.3058,0.3037,0.3039,0.304,0.3044,0.3031,0.3024,0.3021,0.3056,0.3056,0.3056,0.3056,0,0,0.3218,0.3193,0.3189,0.318,0.3161,0.3147,0.313,0.3112,0.3103,0.3088,0.3074,0.305,0.3051,0.304,0.3035,0.3024,0.3009,0.3026,0.3026,0.3023,0.2985,0.2984,0.2981,0.3008,0.3007,0.3007,0.2987,0,0.3197,0.3166,0.3158,0.3132,0.3116,0.3113,0.3098,0.3085,0.3077,0.3063,0.3054,0.3037,0.304,0.3033,0.3023,0.3013,0.3001,0.3014,0.2994,0.2993,0.2998,0.2977,0.2976,0.2958,0.2984,0.2983,0.2983,0,0.3168,0.3153,0.3125,0.3109,0.3102,0.3089,0.3072,0.3059,0.3044,0.3039,0.3027,0.3023,0.3006,0.3012,0.2989,0.2998,0.2989,0.2983,0.2983,0.298,0.2987,0.2974,0.2952,0.2949,0.2979,0.2979,0.2979,0,0.3156,0.3129,0.3109,0.3102,0.3082,0.3073,0.3065,0.305,0.304,0.3026,0.3019,0.3003,0.2994,0.2982,0.2974,0.2979,0.2951,0.2956,0.2946,0.2946,0.2939,0.294,0.2915,0.2935,0.2935,0.2935,0.2935,0,0.3133,0.3116,0.3104,0.3091,0.3073,0.3065,0.3047,0.3038,0.3026,0.3012,0.3009,0.2996,0.2986,0.2972,0.2966,0.2947,0.2943,0.2939,0.2937,0.2939,0.2939,0.2933,0.2934,0.2934,0.2934,0.2935,0.2935,0,0.3116,0.3107,0.3085,0.3069,0.3065,0.3052,0.3038,0.3026,0.3019,0.3002,0.2997,0.2985,0.2969,0.296,0.2939,0.2935,0.2914,0.2914,0.2919,0.2918,0.2909,0.291,0.2878,0.2874,0.2897,0.2897,0.2897,0,0.3102,0.3089,0.3072,0.3062,0.3054,0.3039,0.3029,0.3021,0.3011,0.2994,0.2984,0.2968,0.2954,0.2928,0.2918,0.2903,0.2901,0.2892,0.2899,0.2901,0.2901,0.2902,0.2901,0.289,0.289,0.2889,0.2889,0,0.3077,0.3074,0.3059,0.3043,0.3032,0.3019,0.3006,0.2999,0.2989,0.2978,0.2962,0.2951,0.2931,0.2914,0.2899,0.289,0.2888,0.2887,0.2884,0.2885,0.2889,0.2887,0.2915,0.2888,0.2888,0.2888,0.2888,0.2888,0.3061,0.3049,0.3036,0.302,0.301,0.2999,0.2987,0.2979,0.2965,0.2947,0.2944,0.2927,0.2914,0.2892,0.2884,0.287,0.2872,0.2867,0.2866,0.2865,0.2865,0.2892,0.2867,0.2867,0.2867,0.2867,0.2867,0,0.3036,0.3027,0.3013,0.2996,0.2984,0.2984,0.297,0.296,0.2945,0.2933,0.292,0.2902,0.2886,0.2876,0.286,0.2852,0.2851,0.2848,0.2848,0.2846,0.2864,0.2868,0.2849,0.2849,0.2849,0.2849,0.2849,0.2849,0.3021,0.3002,0.2997,0.2974,0.2965,0.2948,0.2941,0.293,0.2921,0.2901,0.2888,0.2881,0.287,0.2854,0.2841,0.2838,0.2832,0.283,0.2827,0.2843,0.2845,0.2847,0.2851,0.2829,0.2829,0.2811,0.2811,0.281]},{"header":{"parameterUnit":"m.s-1","parameterCategory":1,"la1":30.2991,"la2":30.254,"lo1":-89.0895,"lo2":-89.0444,"dy":0.0017,"dx":0.0017,"nx":28,"ny":28,"refTime":"2025-07-05T09:00:00:Z","depth":0,"parameterNumber":3,"parameterNumberName":"V-component_of_WINDS"},"data":[0,0,0,0,0,0,0,0,0,0,0,0,0,0,0,0,0,0,0,0,0,0,0,0,0,0,0,0,0,0,0,0,0,0,0,0,0,0,0,0,0,0,0,0,0,0,0,0,0,0,0,0,0,0,0,0,0,0,-3.7907,-3.7908,0,-3.8025,-3.8026,-3.8028,-3.7995,-3.7993,-3.799,-3.7988,-3.8105,-3.811,-3.8116,0,0,0,0,0,0,0,0,0,0,0,0,0,-3.7649,-3.7654,-3.7907,-3.7908,-3.791,-3.8025,-3.8026,-3.8028,-3.7995,-3.7993,-3.799,-3.7987,-3.8103,-3.811,-3.8116,0,0,0,0,0,0,0,0,0,0,0,0,0,-3.7764,-3.7656,-3.7907,-3.7907,-3.7909,-3.8025,-3.8027,-3.8028,-3.7996,-3.7992,-3.7989,-3.7986,-3.8101,-3.8109,-3.8117,-3.8238,0,0,-3.8141,-3.8145,0,0,0,0,0,0,0,0,-3.7757,-3.7773,-3.7906,-3.7908,-3.7909,-3.7992,-3.7979,-3.8099,-3.7997,-3.7963,-3.7988,-3.7984,-3.807,-3.808,-3.811,-3.8243,-3.8248,-3.8142,-3.8147,-3.815,-3.8153,0,0,0,0,0,0,0,-3.7749,-3.7768,-3.7953,-3.7908,-3.791,-3.7901,-3.7913,-3.8001,-3.8035,-3.7965,-3.7963,-3.7978,-3.807,-3.8103,-3.8113,-3.825,-3.8142,-3.8149,-3.8154,-3.8157,-3.8488,-3.8492,0,0,0,0,0,0,-3.7741,-3.7761,-3.795,-3.7957,-3.7823,-3.7908,-3.7922,-3.7969,-3.8034,-3.804,-3.7981,-3.7976,-3.8091,-3.8103,-3.8117,-3.8263,-3.815,-3.8158,-3.8162,-3.8484,-3.8489,-3.8493,0,0,0,0,0,0,-3.7735,-3.7758,-3.7945,-3.7859,-3.7882,-3.7917,-3.7969,-3.7973,-3.8005,-3.8046,-3.8051,-3.8008,-3.8088,-3.8105,-3.8208,-3.8266,-3.8161,-3.8169,-3.8479,-3.8486,-3.8491,-3.8556,0,0,0,0,0,0,-3.7728,-3.7756,-3.7803,-3.786,-3.7887,-3.8036,-3.7973,-3.7978,-3.802,-3.8015,-3.8073,-3.8079,-3.8087,-3.8197,-3.8216,-3.8275,-3.8175,-3.8474,-3.8482,-3.8489,-3.8549,-3.8563,-3.8576,0,0,0,0,0,-3.7719,-3.7816,-3.7806,-3.7829,-3.7947,-3.8039,-3.8054,-3.8063,-3.8025,-3.8072,-3.8098,-3.8077,-3.8257,-3.8207,-3.8229,-3.8292,-3.8471,-3.848,-3.8489,-3.8542,-3.856,-3.8575,0,0,0,0,0,0,-3.7763,-3.7823,-3.7813,-3.7931,-3.7981,-3.8034,-3.8093,-3.8081,-3.8142,-3.8134,-3.8141,-3.8154,-3.826,-3.8286,-3.823,-3.8412,-3.8358,-3.8372,-3.8391,-3.8409,-3.8422,-3.8413,-3.8182,0,0,0,0,0,-3.7787,-3.7859,-3.7907,-3.8006,-3.8032,-3.8059,-3.8099,-3.8102,-3.8153,-3.8173,-3.8206,-3.8255,-3.8323,-3.8367,-3.8431,-3.8552,-3.8564,-3.8606,-3.8619,-3.863,-3.8642,-3.8708,-3.8727,-3.8523,-3.8523,-3.8522,0,0,-3.7837,-3.7878,-3.7923,-3.8016,-3.8055,-3.8128,-3.8076,-3.8155,-3.8209,-3.8184,-3.8284,-3.831,-3.8365,-3.8478,-3.8529,-3.8503,-3.8701,-3.8642,-3.865,-3.8656,-3.8719,-3.8738,-3.8755,-3.8529,-3.8528,-3.8527,0,0,-3.7964,-3.8003,-3.8091,-3.8131,-3.819,-3.8207,-3.8228,-3.8284,-3.8301,-3.8401,-3.8384,-3.8447,-3.8563,-3.8604,-3.8639,-3.8782,-3.8765,-3.8803,-3.8874,-3.8938,-3.8954,-3.8968,-3.9019,-3.9038,-3.8814,-3.8815,-3.8815,0,-3.8018,-3.8129,-3.8137,-3.8218,-3.826,-3.8242,-3.833,-3.8368,-3.8445,-3.8474,-3.8443,-3.8589,-3.8625,-3.8747,-3.8782,-3.8811,-3.8835,-3.8796,-3.8951,-3.8966,-3.8979,-3.9028,-3.9047,-3.8819,-3.8818,-3.8818,-3.8818,0,-3.8192,-3.8268,-3.8332,-3.8408,-3.8457,-3.8541,-3.8561,-3.8609,-3.8607,-3.8627,-3.8729,-3.8772,-3.8845,-3.8873,-3.8872,-3.8995,-3.8977,-3.8949,-3.8895,-3.9003,-3.9048,-3.9067,-3.8825,-3.8823,-3.8822,-3.8821,0,0,-3.8351,-3.8431,-3.8454,-3.8489,-3.8553,-3.8612,-3.8695,-3.8768,-3.8809,-3.8862,-3.8932,-3.9031,-3.9006,-3.9046,-3.9048,-3.9105,-3.9216,-3.907,-3.9071,-3.9096,-3.9354,-3.9375,-3.9396,-3.9205,-3.9208,-3.9211,-3.9349,0,-3.8484,-3.8632,-3.8642,-3.8775,-3.8846,-3.883,-3.8902,-3.8949,-3.897,-3.9032,-3.9054,-3.9125,-3.9086,-3.911,-3.9165,-3.9191,-3.9267,-3.9181,-3.9268,-3.9272,-3.9256,-3.942,-3.9442,-3.9571,-3.9367,-3.937,-3.9372,0,-3.866,-3.872,-3.8861,-3.8916,-3.8946,-3.9011,-3.9078,-3.9138,-3.919,-3.9201,-3.9247,-3.9242,-3.9326,-3.9269,-3.9384,-3.9325,-3.9361,-3.9379,-3.9384,-3.9393,-3.9329,-3.9433,-3.9612,-3.9631,-3.9401,-3.9398,-3.9396,0,-3.8762,-3.8878,-3.8978,-3.9008,-3.9074,-3.912,-3.9149,-3.9198,-3.9241,-3.93,-3.9328,-3.9394,-3.9431,-3.9482,-3.9495,-3.9452,-3.961,-3.9554,-3.9621,-3.9621,-3.9656,-3.9653,-3.9843,-3.9679,-3.9679,-3.9678,-3.9678,0,-3.891,-3.8997,-3.9025,-3.9086,-3.9182,-3.9192,-3.9287,-3.9313,-3.9357,-3.9422,-3.9412,-3.9473,-3.9486,-3.9549,-3.9559,-3.9654,-3.967,-3.9681,-3.9682,-3.9682,-3.9681,-3.9706,-3.9697,-3.9683,-3.9682,-3.9681,-3.968,0,-3.904,-3.9063,-3.917,-3.9224,-3.924,-3.9309,-3.9355,-3.9413,-3.9432,-3.9515,-3.9535,-3.9565,-3.9639,-3.9657,-3.9745,-3.9751,-3.9863,-3.9856,-3.9846,-3.9846,-3.9912,-3.9906,-4.0124,-4.0153,-3.997,-3.9972,-3.9974,0,-3.9134,-3.92,-3.9262,-3.9306,-3.9338,-3.9408,-3.9452,-3.9464,-3.9511,-3.9576,-3.9626,-3.9699,-3.9758,-3.9877,-3.9906,-3.9973,-3.9968,-4.004,-3.9978,-3.9975,-3.9969,-3.9965,-3.9972,-4.0052,-4.0054,-4.0055,-4.0056,0,-3.9297,-3.9305,-3.937,-3.9439,-3.9492,-3.9547,-3.9599,-3.9635,-3.9654,-3.9706,-3.9783,-3.9829,-3.9919,-3.9992,-4.006,-4.0088,-4.0076,-4.0076,-4.0095,-4.0095,-4.0087,-4.0093,-3.9879,-4.0071,-4.0069,-4.0068,-4.0067,-4.0067,-3.9412,-3.947,-3.9523,-3.9596,-3.9637,-3.9686,-3.9743,-3.9771,-3.9835,-3.9911,-3.9913,-3.9997,-4.0047,-4.0136,-4.0169,-4.0234,-4.0211,-4.0239,-4.0246,-4.0253,-4.0259,-4.0077,-4.0246,-4.0245,-4.0245,-4.0245,-4.0244,0,-3.9574,-3.9608,-3.9675,-3.9749,-3.9806,-3.979,-3.9847,-3.9895,-3.9969,-4.0018,-4.0077,-4.0164,-4.0235,-4.027,-4.0339,-4.0384,-4.038,-4.0402,-4.0399,-4.0406,-4.0275,-4.0251,-4.0404,-4.0404,-4.0404,-4.0404,-4.0404,-4.0404,-3.9666,-3.9764,-3.9779,-3.9897,-3.9929,-4.0012,-4.0046,-4.0091,-4.0129,-4.0228,-4.0287,-4.031,-4.0353,-4.0426,-4.0489,-4.0497,-4.0523,-4.0548,-4.0554,-4.0431,-4.0415,-4.0399,-4.0377,-4.0554,-4.0554,-4.0679,-4.068,-4.0681]}]]